Flag for Norway Weather past 2 weeks in Halden, Norway

Now
51 °F

Cool.


Feels Like: 50 °F
Forecast: 45 / 64 °F
Wind: 3 mph from Northwest

Location: Stromtangen Fyr


UV Index: 0 (Low)

Visibility: N/A


Pressure: 30.22 "Hg

Humidity: 73%

Dew point: 42 °F

Location of HaldenLocation

Historic Weather in Halden

°F

Halden temperature yesterday

Maximum temperature yesterday: 49 °F (at 6:00 PM)
Minimum temperature yesterday: 37 °F (at 6:00 AM)
Average temperature yesterday: 44 °F

Past Weeks' High & Low Weather Summary

 TemperatureHumidityPressure
High55 °F (Apr 14, 4:00 PM)93% (Apr 6, 7:00 PM)30.34 "Hg (Apr 6, 7:00 PM)
Low37 °F (Apr 16, 3:00 AM)24% (Apr 15, 3:00 PM)29.38 "Hg (Apr 13, 7:00 AM)
Average44 °F78%29.88 "Hg
* Reported Apr 5 10:00 AM — Apr 20 10:00 AM, Halden, Weather by CustomWeather, © 2014

Note: Actual official high and low records may vary slightly from our data, if they occured in-between our weather recording intervals... More about our weather records

Advertising

Historic Weather Conditions — Data for Previous 24 hours

 ConditionsComfort  
Time TempWeatherWind HumidityBarometerVisibility
10:00 AM
Apr 20
49 °FCool.3 mph74%30.23 "HgN/A
9:00 AM45 °FQuite cool.5 mph81%30.23 "HgN/A
8:00 AM41 °FQuite cool.1 mph86%30.23 "HgN/A
7:00 AM39 °FChilly.1 mph89%30.23 "HgN/A
6:00 AM39 °FChilly.3 mph89%30.23 "HgN/A
5:00 AM39 °FChilly.2 mph90%30.24 "HgN/A
4:00 AM40 °FChilly.3 mph90%30.24 "HgN/A
3:00 AM40 °FChilly.3 mph90%30.24 "HgN/A
2:00 AM40 °FQuite cool.3 mph90%30.24 "HgN/A
1:00 AM40 °FQuite cool.3 mph89%30.25 "HgN/A
12:00 AM41 °FQuite cool.2 mph89%30.25 "HgN/A
11:00 PM
Apr 19
43 °FQuite cool.1 mph88%30.25 "HgN/A
10:00 PM45 °FCool.2 mph87%30.25 "HgN/A
9:00 PM46 °FCool.2 mph85%30.25 "HgN/A
8:00 PM47 °FCool.2 mph83%30.25 "HgN/A
7:00 PM48 °FCool.3 mph79%30.25 "HgN/A
6:00 PM49 °FCool.2 mph76%30.26 "HgN/A
5:00 PM48 °FCool.5 mph77%30.27 "HgN/A
4:00 PM48 °FCool.2 mph78%30.28 "HgN/A
3:00 PM48 °FCool.3 mph77%30.29 "HgN/A
2:00 PM47 °FCool.5 mph79%30.30 "HgN/A
1:00 PM47 °FCool.3 mph79%30.31 "HgN/A
12:00 PM46 °FCool.5 mph79%30.31 "HgN/A
11:00 AM47 °FCool.2 mph74%30.31 "HgN/A
Weather by CustomWeather, © 2014

See weather overview